Regional Weather Roundup
Issued by NWS

Home | Current Version | Previous Version | Text Only | Print | Product List | Glossary On
Versions: 1 2 3 4 5 6 7 8 9 10 11 12 13 14 15 16 17 18 19 20 21 22 23 24 25 26 27 28 29 30 31 32 33 34 35 36 37 38 39 40 41 42 43 44 45 46 47 48 49 50
000
ASUS43 KIND 282059
RWRIN

WEATHER ROUNDUP FOR INDIANA
NATIONAL WEATHER SERVICE INDIANAPOLIS IN
500 PM EDT TUE JUL 28 2015

NOTE: "FAIR" INDICATES FEW OR NO CLOUDS BELOW 12,000 FEET WITH NO
SIGNIFICANT WEATHER AND/OR OBSTRUCTIONS TO VISIBILITY.

* - STATION DOES NOT REPORT WEATHER SUCH AS PRECIPITATION OR FOG.

+ - STATION NOT QUALITY CONTROLLED BY THE NATIONAL WEATHER SERVICE.
    USE DATA WITH CAUTION...ESPECIALLY DEWPOINT AND RELATIVE
    HUMIDITY OBSERVATIONS.

INZ001>003-010>013-019-020-282200-
NORTHWEST INDIANA

CITY           SKY/WX    TMP DP  RH WIND       PRES   REMARKS
GARY /AIRPORT/ PTSUNNY   90  72  55 SE7       29.94F HX  96
KNOX *+        MOSUNNY   88  68  51 S6        29.95F
MONTICELLO +   PTSUNNY   88  73  60 S3        29.95F HX  95
RENSSELAER +   SUNNY     88  72  58 W5        29.95F

$$

LMZ046-743>745-282200-
SOUTHERN LAKE MICHIGAN

STATION/POSITION TIME  TEMP    WIND        PRES    WAVE
                       AIR SEA DIR/SP/G            HT
                 (UTC) (F)     (DEG/KT/KT) (MB)    (FT)
MICHIGAN CITY    2000   83     330/  4/  6   N/A
5NW MICH CITY    2000   80 80   50/  6/  8   N/A     0

$$

INZ004-005-014>016-021>024-282200-
NORTH CENTRAL INDIANA

CITY           SKY/WX    TMP DP  RH WIND       PRES   REMARKS
ELKHART        PTSUNNY   88  64  45 S5        29.98F
GOSHEN         PTSUNNY   87  68  52 S5        29.98F
SOUTH BEND     MOSUNNY   88  68  51 VRB3      29.98F
WARSAW +       PTSUNNY   88  70  55 E6        29.98F

$$

INZ006>009-017-018-025>027-282200-
NORTHEAST INDIANA

CITY           SKY/WX    TMP DP  RH WIND       PRES   REMARKS
ANGOLA *+      SUNNY     88  66  48 VRB3      29.99F
FORT WAYNE     PTSUNNY   88  69  53 CALM      29.98F

$$

INZ028-029-035-036-043>045-051>053-282200-
WEST CENTRAL INDIANA

CITY           SKY/WX    TMP DP  RH WIND       PRES   REMARKS
CRAWFORDSVL +  SUNNY     87  67  52 W5          N/A
GREENCASTLE +  SUNNY     90  64  43 N7        29.97F
LAFAYETTE      MOSUNNY   89  73  59 W6        29.95F HX  97
TERRE HAUTE    CLOUDY    89  76  65 N3        29.95F HX 100

$$

INZ030>032-037>040-046>048-054>057-064-065-282200-
CENTRAL INDIANA

CITY           SKY/WX    TMP DP  RH WIND       PRES   REMARKS
COLUMBUS       SUNNY     90  68  48 CALM      29.95F
GREENWOOD *+   PTSUNNY   86  70  58 E6        29.97
INDIANAPOLIS   PTSUNNY   90  71  53 W13       29.95S HX  96
-EAGLE CREEK   SUNNY     88  72  58 W5        29.95F
KOKOMO *+      SUNNY     90  72  55 CALM      29.96F HX  96
MT COMFORT *+  MOSUNNY   81 N/A N/A SE7       29.99F
SHELBYVILLE    CLOUDY    88  76  67 NE7       29.95F HX  99

$$

INZ033-034-041-042-049-050-058-059-282200-
EAST CENTRAL INDIANA

CITY           SKY/WX    TMP DP  RH WIND       PRES   REMARKS
MUNCIE         MOSUNNY   87  70  56 CALM      29.97F

$$

INZ060-061-067>069-081>083-085>088-282200-
SOUTHWEST INDIANA

CITY           SKY/WX    TMP DP  RH WIND       PRES   REMARKS
EVANSVILLE     MOSUNNY   93  77  59 NW5       29.94F HX 107
HUNTINGBURG *+ MOSUNNY   90  75  62 S5        29.95S HX 100

$$

INZ062-063-066-070>080-084-089>092-282200-
SOUTH CENTRAL AND SOUTHEAST INDIANA

CITY           SKY/WX    TMP DP  RH WIND       PRES   REMARKS
BLOOMINGTON    MOSUNNY   91  73  55 NW3       29.96F HX  99
MADISON *+     SUNNY     90  68  48 NW5       29.97F
SEYMOUR +      SUNNY     95  72  46 W6        29.94F HX 103

$$




USA.gov is the U.S. government's official web portal to all federal, state and local government web resources and services.